Back to catalog

MARISAT 3

AliveCommunicationsMEO
NORAD 8882·PAYLOAD·🇺🇸 United States

Launched Jun 10, 1976 from Cape Canaveral Space Force Station

Loading…

Next Passes (next 24 hours)

TLE

FreshSource: Space-Track

Epoch: Sep 14, 2026, 11:49 UTC

1 08882U 76053A   26257.49262855 -.00000190  00000-0  00000-0 0  9991
2 08882   7.5264 300.4832 0133115 334.8114 199.6071  0.95899849122010

Track MARISAT 3 in real time with AllMySat

Download on the App Store